www.pogodaiklimat.ru
ПОГОДА в Ломпоке
Время
и дата
22:56 19.07
23:10 19.07
23:56 19.07
00:56 20.07
01:56 20.07
02:37 20.07
02:56 20.07
03:22 20.07
03:56 20.07
04:15 20.07
04:56 20.07
05:53 20.07
05:56 20.07
06:56 20.07
07:00 20.07
07:49 20.07
07:56 20.07
08:05 20.07
08:56 20.07
09:25 20.07
09:56 20.07
10:56 20.07
11:56 20.07
12:56 20.07
13:56 20.07
14:56 20.07
15:56 20.07
16:56 20.07
17:56 20.07
18:56 20.07
19:56 20.07
20:53 20.07
20:56 20.07
21:56 20.07
22:56 20.07
23:56 20.07
00:56 21.07
01:56 21.07
02:56 21.07
03:03 21.07
03:56 21.07
04:56 21.07
05:07 21.07
05:18 21.07
05:48 21.07
05:56 21.07
06:02 21.07
06:56 21.07
Ветер
(напр.,м/с)
Видим. Явления Облачность Т
(С)
Тd
(С)
f
(%)
Тe
(С)
Тes
(С)
Комфортность P
(гПа)
Po
(гПа)
Тmin
(С)
Tmax
(С)
R
(мм)
R24
(мм)
S
(см)
штиль 0 4 км дымка 10/10 120 м +13.3 +13.3 100 +13 +13 1015.1 1011.9
С 2 6 км дымка 10/10 120 м +13.0 +13.0 100 +12 +12 1011.5
штиль 0 11 км 10/10 120 м +13.3 +13.3 100 +13 +13 1014.7 1011.2
штиль 0 10 км дымка 10/10 120 м +13.3 +13.3 100 +13 +13 1014.4 1010.9
штиль 0 14 км 10/10 120 м +13.3 +13.3 100 +13 +13 1014.0 1010.5
З 2 4 км дымка 10/10 60 м +13.0 +13.0 100 +12 +12 1010.9
штиль 0 2 км дымка 10/10 60 м +12.8 +12.8 100 +12 +12 1014.3 1010.9
З 2 800 м туман 10/10 60 м +13.0 +13.0 100 +12 +12 1011.2
штиль 0 800 м туман 10/10 60 м +12.8 +12.8 100 +12 +12 1014.5 1011.2 +12.8 +13.3
штиль 0 2 км дымка 10/10 60 м +13.0 +13.0 100 +12 +12 1011.2
штиль 0 1 км дымка 10/10 60 м +12.2 +12.2 100 +11 +11 1014.7 1011.5
штиль 0 2 км дымка 10/10 60 м +12.0 +12.0 100 +11 +11 1011.9
штиль 0 3 км дымка 10/10 60 м +12.2 +12.2 100 +11 +11 1015.2 1011.9
штиль 0 2 км дымка 10/10 60 м +12.2 +12.2 100 +11 +11 1016.0 1012.6
нст 2 5 км дымка 10/10 60 м +13.0 +13.0 100 +12 +12 1012.6
З 3 16 км 10/10 120 м +13.0 +13.0 100 +11 +11 1012.9
З 3 16 км 10/10 120 м +13.9 +13.9 100 +13 +13 1016.3 1012.9
З 3 16 км 10/10 180 м +14.0 +14.0 100 +13 +13 1012.9
нст 3 16 км 10/10 240 м +16.1 +13.9 87 +16 +16 1016.0 1012.6
З 4 16 км 2/2 240 м +17.0 +14.0 82 +17 +23 1012.6
З 5
{8}
16 км ясно +18.3 +14.4 78 +18 +25 1016.0 1012.6 +12.2 +18.3
З 5
{8}
16 км ясно +19.4 +14.4 73 +21 +30 комфорт 1016.1 1012.9
З 8 16 км ясно +18.9 +14.4 75 +19 +23 1016.1 1012.6
З 6
{8}
16 км ясно +19.4 +14.4 73 +21 +29 комфорт 1015.8 1012.6
З 6
{9}
16 км ясно +18.9 +14.4 75 +20 +27 1015.6 1012.2
З 7 16 км ясно +18.9 +13.9 73 +19 +24 1015.0 1011.5
З 6
{8}
16 км ясно +18.9 +13.9 73 +19 +24 1014.6 1011.2 +17.8 +19.4
З 6
{8}
16 км 8/8 360 м +16.7 +14.4 86 +16 +16 1014.4 1011.2
З 5 16 км 10/10 240 м +15.6 +14.4 93 +14 +14 1014.7 1011.2
СЗ 4 16 км 10/10 180 м +14.4 +14.4 100 +13 +13 1015.0 1011.5
СЗ 3 13 км 10/10 180 м +13.9 +13.9 100 +13 +13 1015.3 1011.9
З 4 10 км дымка 10/10 120 м +14.0 +14.0 100 +12 +12 1011.9
З 4 8 км дымка 10/10 120 м +13.9 +13.9 100 +12 +12 1015.3 1011.9
З 4 11 км 10/10 120 м +13.9 +13.9 100 +12 +12 1015.4 1011.9 +13.9 +18.9
СЗ 3 13 км 10/10 120 м +13.3 +13.3 100 +12 +12 1014.9 1011.5
СЗ 2 5 км дымка 10/10 120 м +13.3 +13.3 100 +12 +12 1014.5 1011.2
З 3 10 км дымка 10/10 120 м +13.3 +13.3 100 +12 +12 1014.3 1010.9
З 3 6 км дымка 10/10 120 м +13.3 +13.3 100 +12 +12 1014.1 1010.9
СЗ 2 4 км дымка 10/10 120 м +12.8 +12.8 100 +12 +12 1014.1 1010.9
СЗ 2 6 км дымка 10/10 120 м +13.0 +13.0 100 +12 +12 1010.5
З 4 8 км дымка 10/10 120 м +12.8 +12.8 100 +11 +11 1014.1 1010.9 +12.8 +13.9
СЗ 4 6 км дымка 10/10 120 м +12.8 +12.8 100 +11 +11 1014.1 1010.9
СЗ 2 3 км дымка 10/10 120 м +13.0 +13.0 100 +12 +12 1010.9
З 4 5 км дымка 10/10 120 м +13.0 +13.0 100 +11 +11 1010.9
З 4 3 км дымка 10/10 120 м +13.0 +13.0 100 +11 +11 1011.2
З 5 2 км дымка 10/10 60 м +12.8 +12.8 100 +10 +10 1014.4 1011.2
СЗ 3 5 км дымка 10/10 60 м +13.0 +13.0 100 +11 +11 1011.2
З 3 10 км дымка 10/10 120 м +12.8 +12.8 100 +11 +11 1015.0 1011.5
Местоположение метеостанции Lompoc Airport: широта 34.6667 долгота -120.4667 высота над уровнем моря 27 м.
В архиве по умолчанию представлена погода в Ломпоке за последние 1-2 суток. Обновление информации о фактической погоде в базе происходит ежечасно! Архивные данные за месяц целиком и за предыдущие месяцы Вы можете получить, выбрав интересующий диапазон дат из раскрывающегося списка и нажав кнопку "Ввод!".
Внимание! Архив погоды МЕТАР в базе сайта по станциям, не включенным в климатический монитор, хранится не более 60 дней. Нет смысла пытаться выбрать более раннюю дату.
*Определитесь, кто Вы:
Внимание! Время в таблицах - местное (без учета летнего времени). Для получения всемирного времени необходимо вычесть поправку, которая равна -8 ч.
Смотрите также архив погоды в соседних городах и на ближайших метеорологических станциях:
Партнеры нашего сайта:      
Пояснения к столбцам:
  • Ветер - указаны скорость ветра в м/с - средняя за 10 мин, порывы в срок и между сроками (в фигурных скобках) и направление, откуда дует ветер: С - северный,
  • СВ - северо-восточный, В - восточный, ЮВ - юго-восточный, Ю - южный, ЮЗ - юго-западный, З - западный, СЗ - северо-западный.
  • Видимость - горизонтальная дальность видимости в метрах или километрах. При видимости от 1 до 10 км при отсутствии осадков обычно наблюдается дымка, при ухудшении видимости до 1 км и менее - туман. В сухую погоду видимость может ухудшаться дымом, пылью или мглою.
  • Явления - указаны атмосферные явления, наблюдавшиеся в срок или в последний час перед сроком; фигурными скобками обозначены явления, наблюдавшиеся между сроками (за 1-3 часа до срока); квадратными скобками обозначены град или гололедные отложения с указанием их диаметра в мм.
  • Облачность - указаны через наклонную черту общая и нижняя облачность в баллах и высота нижней границы облаков в метрах; квадратными скобками обозначены формы облаков: Ci - перистые, Cs - перисто-слоистые, Cc - перисто-кучевые, Ac - высококучевые, As - высокослоистые, Sc - слоисто-кучевые, Ns - слоисто-дождевые, Cu - кучевые, Cb - кучево-дождевые. Подробнее классификацию облаков см. в Атласе облаков (PDF).
  • T - Температура воздуха - температура, измеренная на высоте 2 м над землей.
  • Td - Температура точки росы - температура, при понижении до которой содержащийся в воздухе водяной пар достигнет насыщения.
  • f - Относительная влажность воздуха - влажноcть воздуха, измеренная на высоте 2 м над землей.
  • Te - Эффективная температура - температура, которую ощущает одетый по сезону человек в тени. Характеристика душности погоды. При расчете учитывается влияние влажности воздуха и скорости ветра на теплоощущения человека.
  • Tes - Эффективная температура на солнце - температура, которую ощущает человек, с поправкой на солнечный нагрев. Характеристика знойности погоды. Зависит от высоты солнца над горизонтом, облачности и скорости ветра. Ночью, в пасмурную погоду, а также при ветре 12 м/с и более поправка равна нулю.
  • P - Атмосферное давление - приведенное к уровню моря атмосферное давление.
  • Po - Атмосферное давление - измеренное на уровне метеостанции атмосферное давление.
  • Tmin - Минимальная температура - минимум температуры воздуха на высоте 2 м над землей.
  • Tmax - Максимальная температура - максимум температуры воздуха на высоте 2 м над землей.
  • R - Количество осадков - Количество выпавших осадков за период времени, мм. При наведении курсора мыши на число - период времени, за который выпало указанное количество осадков.
  • R24 - Количество осадков - Количество выпавших осадков за 24 часа, мм.
  • S - Снежный покров - Высота снежного покрова, см. При наведении курсора мыши на число - состояние снежного покрова и степень покрытия местности в баллах.